Kezdőlap
METAR-TAF:

METAR-TAF

Repülőterek :

Dumas, Texas, Amerikai Egyesült Államok

földrajzi szélesség: 35-51-28N, földrajzi hosszúság: 102-00-47W, magasság: 1129 m

Jelenlegi meteorológiai megfigyelések

A jelentés 33 perccel ezelõtt készült, 02:55 UTC
Keleti szél 7 kt
Hőmérséklet 20°C
Páratartalom 56%
Légköri nyomás 1021 hPa
Látótávolság: 16.1 km
Derült ég

METAR: KDUX 230255Z AUTO 08007KT 10SM CLR 20/11 A3016 RMK AO2 T02020111

Idő: 22:28 (03:28 UTC)


TAF: hiányzik

Meteorológiai megfigyelések és előrejelzések több, mint 4000 repülőtéren (METAR és TAF jelentéseket).

A térképen piros és sárga pontok jelzik az elérhető meteorológiai állomásokat.

Mozgassa az egeret a pont fölött, hogy megjelenjen az állomás neve.

Azután kattintson az időjárási megfigyelések és előrejelzések megtekintéséhez.

A térkép megváltoztatása: kattintson a fekete keresztel jelölt zöld gombra ráközelítéshez, a vonallal jelölt zöld gombra távolításhoz, vagy a zöld nyilakra a szomszédos térképek eléréséhez.


METAR-TAF: